Weather History for Geneva, Switzerland

Change the Weather History Date:

Saturday, November 16, 2013

  Actual Average Record
Temperature  
Mean Temperature 40 °F -  
Max Temperature 41 °F 43 °F 55 °F (2005)
Min Temperature 39 °F 32 °F 23 °F (2004)
Degree Days  
Heating Degree Days 25    
Moisture  
Dew Point 35 °F    
Average Humidity 79    
Maximum Humidity 87    
Minimum Humidity 63    
Precipitation  
Precipitation 0.00 in 0.11 in - ()
Sea Level Pressure  
Sea Level Pressure 30.30 in    
Wind  
Wind Speed 6 mph ()    
Max Wind Speed 12 mph    
Max Gust Speed 16 mph    
Visibility 5.8 miles    
Events      
Averages and records for this station are not official NWS values.
T = Trace of Precipitation, MM = Missing Value Source: Averaged Metar Reports

Daily Weather History Graph

Daily Weather History Graph

Search for Another Location

Airport:

Trip Planner

Search our weather history database for the weather conditions in past years. The results will help you decide how hot, cold, wet, or windy it might be!

Date:

Astronomy

Nov. 16, 2013 Rise Set
Actual Time 7:38 AM CET 5:02 PM CET
Civil Twilight 7:05 AM CET 5:34 PM CET
Nautical Twilight 6:28 AM CET 6:11 PM CET
Astronomical Twilight 5:53 AM CET 6:46 PM CET
Moon 4:29 PM CET (11/16) 6:14 AM CET (11/16)
Length of Visible Light 10h 29m
Length of Day
9h 23m
Waxing Gibbous, 99% of the Moon is Illuminated
Nov 16
Waxing Gibbous
Nov 17
Full
Nov 25
Last Quarter
Dec 3
New
Dec 9
First Quarter

Hourly Weather History & Observations

Time (CET) Temp. Windchill Dew Point Humidity Pressure Visibility Wind Dir Wind Speed Gust Speed Precip Events Conditions
12:00 AM 42 °F - 34 °F 63% 30.35 in - NNE 11.5 mph - -  
12:20 AM 41.0 °F 34.7 °F 35.6 °F 81% 30.30 in 6.2 mi NNE 10.4 mph - N/A   Mostly Cloudy
12:50 AM 41.0 °F 35.2 °F 35.6 °F 81% 30.30 in 6.2 mi NNE 9.2 mph - N/A   Mostly Cloudy
1:00 AM 42 °F - 34 °F 64% 30.36 in 7 mi NNE 9.2 mph - -   Mist
1:20 AM 41.0 °F 37.1 °F 35.6 °F 81% 30.33 in 6.2 mi North 5.8 mph - N/A   Mostly Cloudy
1:50 AM 41.0 °F 37.1 °F 33.8 °F 76% 30.33 in 6.2 mi North 5.8 mph - N/A   Overcast
2:00 AM 41 °F - 33 °F 65% 30.37 in - North 6.9 mph - -  
2:50 AM 41.0 °F - 33.8 °F 76% 30.30 in 6.2 mi Variable 2.3 mph - N/A   Mostly Cloudy
3:00 AM 40 °F - 34 °F 71% 30.36 in - North 4.6 mph - -  
3:20 AM 39.2 °F - 35.6 °F 87% 30.30 in 6.2 mi Variable 2.3 mph - N/A   Mostly Cloudy
3:50 AM 39.2 °F - 35.6 °F 87% 30.30 in 6.2 mi Variable 2.3 mph - N/A   Mostly Cloudy
4:20 AM 39.2 °F - 35.6 °F 87% 30.30 in 6.2 mi Variable 1.2 mph - N/A   Mostly Cloudy
4:50 AM 39.2 °F - 35.6 °F 87% 30.30 in 6.2 mi Calm Calm - N/A   Overcast
5:00 AM 40 °F - 34 °F 71% 30.35 in - North 2.3 mph - -  
5:20 AM 39.2 °F - 35.6 °F 87% 30.30 in 6.2 mi Variable 1.2 mph 16.1 mph N/A   Overcast
5:50 AM 39.2 °F 37.0 °F 35.6 °F 87% 30.30 in 6.2 mi Variable 3.5 mph - N/A   Overcast
6:00 AM 40 °F - 33 °F 69% 30.37 in - North 5.8 mph - -  
6:20 AM 39.2 °F 37.0 °F 33.8 °F 81% 30.30 in 6.2 mi Variable 3.5 mph - N/A   Overcast
6:50 AM 39.2 °F 37.0 °F 33.8 °F 81% 30.33 in 6.2 mi Variable 3.5 mph - N/A   Overcast
7:00 AM 39 °F - 33 °F 73% 30.37 in 9 mi North 3.5 mph - -   Mist
7:20 AM 39.2 °F - 35.6 °F 87% 30.30 in 6.2 mi Variable 2.3 mph - N/A   Overcast
7:50 AM 39.2 °F - 33.8 °F 81% 30.30 in 6.2 mi Variable 2.3 mph - N/A   Overcast
8:00 AM 40 °F - 33 °F 69% 30.36 in - North 6.9 mph - -  
8:20 AM 39.2 °F 37.0 °F 35.6 °F 87% 30.30 in 6.2 mi North 3.5 mph - N/A   Overcast
8:50 AM 41.0 °F 39.0 °F 35.6 °F 81% 30.30 in 6.2 mi North 3.5 mph - N/A   Overcast
9:00 AM 40 °F - 34 °F 71% 30.37 in - North 5.8 mph - -  
9:20 AM 41.0 °F 36.4 °F 35.6 °F 81% 30.33 in 6.2 mi North 6.9 mph - N/A   Overcast
9:50 AM 41.0 °F 36.4 °F 35.6 °F 81% 30.33 in 6.2 mi North 6.9 mph - N/A   Overcast
10:20 AM 41.0 °F 36.4 °F 35.6 °F 81% 30.30 in 5.6 mi North 6.9 mph - N/A   Overcast
10:50 AM 41.0 °F 36.4 °F 35.6 °F 81% 30.30 in 5.6 mi NNE 6.9 mph - N/A   Overcast
11:00 AM 41 °F - 34 °F 69% 30.36 in - North 8.1 mph - -  
11:20 AM 41.0 °F 35.8 °F 35.6 °F 81% 30.30 in 5.0 mi NNE 8.1 mph - N/A   Overcast
11:50 AM 41.0 °F 35.2 °F 35.6 °F 81% 30.30 in 5.0 mi NNE 9.2 mph - N/A   Overcast
12:00 PM 42 °F - 35 °F 66% 30.34 in - NNE 8.1 mph - -  
12:20 PM 41.0 °F 36.4 °F 35.6 °F 81% 30.30 in 6.2 mi NNE 6.9 mph - N/A   Overcast
12:50 PM 41.0 °F 35.8 °F 35.6 °F 81% 30.27 in 5.6 mi NNE 8.1 mph - N/A   Overcast
1:00 PM 42 °F - 35 °F 66% 30.32 in 6 mi NNE 9.2 mph - -   Mist
1:20 PM 41.0 °F 38.0 °F 35.6 °F 81% 30.27 in 5.0 mi NNE 4.6 mph - N/A   Overcast
1:50 PM 41.0 °F 35.8 °F 35.6 °F 81% 30.27 in 5.0 mi NNE 8.1 mph - N/A   Overcast
2:00 PM 42 °F - 36 °F 70% 30.31 in - NNE 8.1 mph - -  
2:20 PM 41.0 °F 36.4 °F 35.6 °F 81% 30.27 in 5.0 mi NNE 6.9 mph - N/A   Overcast
2:50 PM 41.0 °F 35.8 °F 37.4 °F 87% 30.27 in 4.3 mi NNE 8.1 mph - N/A   Overcast
3:00 PM 41 °F - 35 °F 73% 30.30 in - NNE 8.1 mph - -  
3:20 PM 41.0 °F 37.1 °F 35.6 °F 81% 30.24 in 5.0 mi North 5.8 mph - N/A   Overcast
3:50 PM 41.0 °F 37.1 °F 35.6 °F 81% 30.24 in 5.0 mi North 5.8 mph - N/A   Overcast
4:20 PM 41.0 °F 36.4 °F 35.6 °F 81% 30.24 in 5.0 mi North 6.9 mph - N/A   Overcast
4:50 PM 41.0 °F 37.1 °F 35.6 °F 81% 30.24 in 5.0 mi North 5.8 mph - N/A   Overcast
5:00 PM 41 °F - 35 °F 73% 30.30 in - North 8.1 mph - -  
5:20 PM 41.0 °F 37.1 °F 35.6 °F 81% 30.24 in 5.0 mi North 5.8 mph - N/A   Overcast
5:50 PM 41.0 °F 38.0 °F 35.6 °F 81% 30.24 in 5.0 mi North 4.6 mph - N/A   Overcast
6:00 PM 41 °F - 35 °F 73% 30.30 in - North 5.8 mph - -  
6:20 PM 41.0 °F 38.0 °F 35.6 °F 81% 30.24 in 5.0 mi North 4.6 mph - N/A   Overcast
6:50 PM 41.0 °F 37.1 °F 35.6 °F 81% 30.24 in 5.0 mi North 5.8 mph - N/A   Overcast
7:00 PM 41 °F - 36 °F 74% 30.30 in 5 mi North 8.1 mph - -   Mist
7:20 PM 41.0 °F 38.0 °F 35.6 °F 81% 30.24 in 5.6 mi North 4.6 mph - N/A   Overcast
7:50 PM 41.0 °F 38.0 °F 37.4 °F 87% 30.27 in 5.0 mi North 4.6 mph - N/A   Overcast
8:00 PM 41 °F - 36 °F 74% 30.31 in - North 5.8 mph - -  
8:20 PM 41.0 °F 39.0 °F 37.4 °F 87% 30.27 in 5.0 mi North 3.5 mph - N/A   Overcast
8:50 PM 41.0 °F 38.0 °F 35.6 °F 81% 30.27 in 6.2 mi North 4.6 mph - N/A   Overcast
9:00 PM 41 °F - 36 °F 74% 30.31 in - North 5.8 mph - -  
9:20 PM 41.0 °F 39.0 °F 35.6 °F 81% 30.24 in 6.2 mi North 3.5 mph - N/A   Overcast
9:50 PM 41.0 °F - 37.4 °F 87% 30.27 in 6.2 mi Variable 2.3 mph - N/A   Overcast
10:20 PM 41.0 °F - 37.4 °F 87% 30.24 in 6.2 mi Variable 2.3 mph - N/A   Overcast
10:50 PM 41.0 °F - 37.4 °F 87% 30.24 in 6.2 mi Variable 2.3 mph - N/A   Overcast
11:00 PM 41 °F - 36 °F 75% 30.30 in - North 4.6 mph - -  
11:20 PM 41.0 °F - 37.4 °F 87% 30.24 in 6.2 mi Variable 2.3 mph - N/A   Overcast
11:50 PM 41.0 °F - 37.4 °F 87% 30.24 in 6.2 mi Variable 1.2 mph - N/A   Overcast